Regional Weather Roundup
Issued by NWS

Home | Current Version | Previous Version | Text Only | Print | Product List | Glossary On
Versions: 1 2 3 4 5 6 7 8 9 10 11 12 13 14 15 16 17 18 19 20 21 22 23 24 25 26 27 28 29 30 31 32 33 34 35 36 37 38 39 40 41 42 43 44 45 46 47 48 49 50
598
ASUS44 KLIX 201513
RWRLA
LOUISIANA WEATHER ROUNDUP
NATIONAL WEATHER SERVICE NEW ORLEANS LA
1000 AM CDT THU JUL 20 2017

NOTE: "FAIR" INDICATES FEW OR NO CLOUDS BELOW 12,000 FEET WITH NO
      SIGNIFICANT WEATHER AND/OR OBSTRUCTIONS TO VISIBILITY.
      SKY/WX - SKY CONDITION AND SIGNIFICANT WEATHER.
      TMP - AIR TEMPERATURE.    DP   - DEWPOINT TEMPERATURE.
      RH  - RELATIVE HUMIDITY.  PRES - PRESSURE.
      HX  - HEAT INDEX.         WCI  - WIND CHILL INDEX.

*  THESE STATIONS ARE NOT NWS OR FAA STATIONS AND ARE NOT UNDER
   NWS QUALITY CONTROL.

LAZ040-048-061>063-065-066-069-201600-
SOUTHEAST LOUISIANA

CITY           SKY/WX    TMP DP  RH WIND       PRES   REMARKS
N.O. INTL ARPT MOSUNNY   88  77  69 NW7       30.12S HX 100
N.O. LAKEFRONT MOSUNNY   88  77  69 N5        30.13S HX 100
N.O. DOWNTOWN*   N/A     89  76  65 VRB3        N/A  HX 100
RESERVE*       FAIR      90  77  66 CALM      30.12F HX 103
SLIDELL        SUNNY     89  76  65 NW5       30.12S HX 100
BATON ROUGE    SUNNY     87  76  69 VRB3      30.12F HX  97
BOOTHVILLE     SUNNY     87  76  69 N3        30.13S HX  97
BELLE CHASSE   NOT AVBL
BOGALUSA*      PTSUNNY   89  76  67 CALM      30.14S HX 100
GALLIANO*      SUNNY     85  76  73 N3        30.12F HX  95
NEW ROADS*     FAIR      85  78  78 CALM      30.13S HX  96
GONZALES*      FAIR      86  76  70 CALM      30.11F HX  96
HAMMOND*       SUNNY     88  73  62 N5        30.13S HX  96
HOUMA*         SUNNY     84  75  74 N5        30.13F
PORT FOURCHON* SUNNY     86  75  70 NW5       30.12F HX  95

$$

LAZ041-044-053-054-201600-
SOUTHWEST LOUISIANA

CITY           SKY/WX    TMP DP  RH WIND       PRES   REMARKS
LAKE CHARLES   SUNNY     88  76  67 CALM      30.13S HX  99
LAFAYETTE      SUNNY     88  79  74 N5        30.13F HX 103
PATTERSON      SUNNY     87  78  74 NW5       30.13F HX 100
SALT POINT       N/A     86  77  74 NW6       30.11F HX  97
NEW IBERIA     SUNNY     87  77  72 NW6       30.14S HX  99
CHENAULT AIRPK SUNNY     88  77  70 NW5       30.14S HX 100

$$

LAZ027-028-201600-
CENTRAL LOUISIANA

CITY           SKY/WX    TMP DP  RH WIND       PRES   REMARKS
FORT POLK      SUNNY     86  78  77 SW5       30.13S HX  98
ALEXANDRIA INT SUNNY     86  78  77 CALM      30.12S HX  98
ALEXANDRIA     SUNNY     89  77  67 CALM      30.14R HX 101

$$

LAZ001-002-201600-
NORTHWEST LOUISIANA

CITY           SKY/WX    TMP DP  RH WIND       PRES   REMARKS
SHREVEPORT     SUNNY     88  78  72 W7        30.13S HX 101
BARKSDALE AFB  SUNNY     89  75  63 W6        30.12F HX  99
DTN SHREVEPORT SUNNY     89  76  65 NW7       30.13S HX 100

$$

LAZ014-016-201600-
NORTHEAST LOUISIANA

CITY           SKY/WX    TMP DP  RH WIND       PRES   REMARKS
MONROE         SUNNY     89  76  65 VRB3      30.13S HX 100
TALLULAH       SUNNY     90  76  63 VRB3      30.12F HX 101

$$





USA.gov is the U.S. government's official web portal to all federal, state and local government web resources and services.